SL-14 DEB, 47080

Orbit data source: Space-Track

SL-14 DEB, 47080 is space debris in LEO originally from a launch on Thu, 15 Aug 1991 UTC launched from the Plesetsk Missile And Space Complex (PKMTR). Debris objects in space refer to the collection of defunct objects orbiting the Earth. Examples of debris include non-operational satellites, rocket bodies, and fragments generated from explosions, collisions, or faulty payload assembly.

Loading next visibility...
SL-14 DEB details
Identifier
47080, 1991-056DE
Orbit
LEO
Last TLE update2 days ago
Origin
Flag of CISRosgidromet (CIS)
ManufacturerUnknown
MissionSpacecraft
Bus & MotorUnknown
MassUnknown
Launch date (UTC)
1991-08-15 (33 years ago)
Launch vehicleUnknown
Launch site
Plesetsk Missile And Space Complex (PKMTR)
Object type
Payload
Rocket body
Debris
Shape & HBRUnknown
Radar Cross SectionSmall (<0.1 m²)

Expand to show TLE details & history

TLE from 2 days ago
0 SL-14 DEB
1 47080U 91056DE  24359.37080578  .00031118  00000-0  22734-1 0  9994
2 47080  82.5168  43.6326 0166878 267.1344  91.0711 13.89395544206411
Epoch: 2024-12-24T08:53Z
Definitive object data (Epoch: 2024-12-24T08:53:57.619Z)
Latitude0.00001°
Longitude176.76265°
Altitude937.973 km
Speed7.381 km/s
True Right ascension02h 54m 31s
True Declination0° 00' 00"
Sunlit
Object was in full shadow at TLE epoch
Visualization TLE readout
Latitude16.95263°
Longitude177.36181°
Altitude984.164 km
Speed7.335 km/s
Apparent Right ascension01h 09m 28s
Apparent Declination-10° 56' 56"
Sunlit
Object is in full shadow
Visualization observer readout
Local Sidereal Time10:27:23
Azimuth297.58° NW
Elevation-43.971°
Doppler factor1
Orbital elements
Apogee altitude1,049.816 km
Perigee altitude805.973 km
Semi-major axis7,306.031 km
Eccentricity0.0166878
Inclination82.5168°
RAAN43.6326°
Arg. of periapsis267.1344°
True anomaly92.98195°
Mean anomaly91.0711°
Eccentric anomaly92.02664°
Mean motion3.47553 °/min
BSTAR0.022734
Orbital period103.58 mins
Loading maneuver chart data...
Loading historical data...
Loading historical data...
Loading historical data...
Loading historical data...
Loading historical data...
Loading historical data...
Loading historical data...

SL-14 DEB Visibility forecast

Observer location: undefined°, undefined

Span
Click to sort rows by Start time (UTC) header in descending order
Start Az.
Max El. time (UTC)
Max El. Az.
Max El.
End time (UTC)
End Az.
7 mins2024-12-26 13:21:05.720Z31.473° NE2024-12-26 13:24:05.720Z60.644° ENE15.831°2024-12-26 13:28:05.720Z101.559° ESE
10 mins2024-12-26 15:05:05.720Z347.752° N2024-12-26 15:10:05.720Z236.692° WSW43.973°2024-12-26 15:15:05.720Z181.355° SSW
9 mins2024-12-27 02:42:05.720Z135.855° SSE2024-12-27 02:46:05.720Z85.779° E26.732°2024-12-27 02:51:05.720Z30.915° NE
10 mins2024-12-27 04:26:05.720Z222.915° SW2024-12-27 04:30:05.720Z279.747° WNW33.79°2024-12-27 04:36:05.720Z352.777° N
|